COSMOS 1275 DEB, 39946

Orbit data source: Space-Track

COSMOS 1275 DEB, 39946 is space debris in LEO originally from a launch on Thu, 04 Jun 1981 UTC launched from the Plesetsk Missile And Space Complex (PKMTR). Debris objects in space refer to the collection of defunct objects orbiting the Earth. Examples of debris include non-operational satellites, rocket bodies, and fragments generated from explosions, collisions, or faulty payload assembly.

Loading next visibility...
Identifier
39946, 1981-053NG
Orbit
LEO
Country
Flag of CISCIS
Related business
Manufacturer
Unknown
Mission
Spacecraft
Bus & Motor
Unknown
Mass
Unknown
Launch date (UTC)
1981-06-04 (44 years ago)
Launch vehicle
Unknown
Launch site
Plesetsk Missile And Space Complex (PKMTR)
Object type
Payload
Rocket body
Debris
Shape & HBR
Unknown shape, 0.1 m
Radar Cross Section
Small (<0.1 m²)

Expand to show TLE details & history
Last TLE update: 1 week ago

TLE from 1 week ago
0 COSMOS 1275 DEB
1 39946U 81053NG  25289.45644138  .00000350  00000-0  31480-3 0  9996
2 39946  82.9580 357.9817 0034456 213.8786 146.0173 13.81150495892336
Epoch: 2025-10-16T10:57Z
TLE epoch observation values (Epoch: 2025-10-16T10:57:16.535Z)
Latitude
-0.00001°
Longitude
168.4469°
Altitude
983.714 km
Speed
7.349 km/s
True Right ascension
23h 51m 55s
True Declination
0° 00' 00"
Sunlit
Object was in full shadow at epoch
Visualization orbit readout
Latitude
Unknown
Longitude
Unknown
Altitude
Unknown
Speed
Unknown
Apparent Right ascension
Unknown
Apparent Declination
Unknown
Sunlit
N/A
Visualization observer readout
Local Sidereal Time
08:55:32
Azimuth
Unknown
Elevation
Unknown
Doppler factor
Unknown
Orbital elements
Apogee altitude
982.222 km
Perigee altitude
931.675 km
Semi-major axis
7,335.086 km
Eccentricity
0.00345
Inclination
82.958°
RAAN
357.9817°
Arg. of periapsis
213.8786°
True anomaly
146.23721°
Mean anomaly
146.0173°
Eccentric anomaly
146.12733°
Mean motion
3.4549 °/min
Orbital period
104.2 mins
BSTAR
0.0003148
Loading maneuver chart data...
Computing Atmospheric mass density...

Documentation

Showing up to 5 results
|